Regional Weather Roundup
Issued by NWS

Home | Current Version | Previous Version | Text Only | Print | Product List | Glossary On
Versions: 1 2 3 4 5 6 7 8 9 10 11 12 13 14 15 16 17 18 19 20 21 22 23 24 25 26 27 28 29 30 31 32 33 34 35 36 37 38 39 40 41 42 43 44 45 46 47 48 49 50
604
ASUS43 KTOP 250459
RWRKS

WEATHER ROUNDUP FOR KANSAS
NATIONAL WEATHER SERVICE GOODLAND KS
1200 AM CDT FRI MAY 25 2018

NOTE:  "FAIR" INDICATES FEW OR NO CLOUDS BELOW 12,000 FEET WITH NO
SIGNIFICANT WEATHER AND/OR OBSTRUCTIONS TO VISIBILITY.

KSZ001>006-013>018-027>032-041>047-250600-
NORTHWEST KANSAS

CITY           SKY/WX    TMP DP  RH WIND       PRES   REMARKS
GOODLAND       CLEAR     64  49  57 S8        30.02R
HAYS           LGT RAIN  64  58  80 NE14      29.96F
HILL CITY      CLOUDY    65  56  72 SE7       29.97R
RUSSELL        TSTM      63  60  90 NE14      30.00F
$$

KSZ061>065-074>080-084>089-250600-
SOUTHWEST KANSAS

CITY           SKY/WX    TMP DP  RH WIND       PRES   REMARKS
DODGE CITY     CLOUDY    77  60  55 W9        29.98R
GARDEN CITY    CLOUDY    67  50  54 E8        30.00F
GREAT BEND     CLOUDY    65  59  81 N10       29.99F
LIBERAL        CLEAR     74  63  68 SE15      29.99S
$$

KSZ066>073-081>083-090>101-250600-
SOUTHEAST KANSAS

CITY           SKY/WX    TMP DP  RH WIND       PRES   REMARKS
CHANUTE        CLOUDY    68  67  96 SE9       30.00F
COFFEYVILLE    CLOUDY    72  68  87 E6        29.99F
HUTCHINSON     CLEAR     71  63  75 SE8       29.97S
MEDICINE LODGE   N/A     71  66  84 SE6       29.97R
NEWTON         CLEAR     66  62  87 SE9       30.00S
PARSONS        PTCLDY    70  68  93 E3        30.01F
WICHITA INTL   PTCLDY    71  65  81 SE6       29.98R
WICHITA JABRA  CLEAR     68  67  96 SE8       29.98F
WINFIELD       PTCLDY    71  66  84 E6        29.99F
$$

KSZ007>012-019>026-033>040-048>060-102>105-250600-
NORTHEAST KANSAS

CITY           SKY/WX    TMP DP  RH WIND       PRES   REMARKS
CONCORDIA      CLOUDY    71  66  84 SE13      29.93S
EMPORIA        MOCLDY    67  66  97 S8        29.98F
LAWRENCE       CLOUDY    69  67  93 SE5       29.98F
MANHATTAN      CLOUDY    70  65  84 S5        29.95S
OLATHE IND     CLOUDY    69  66  90 S8        30.00F
OLATHE EXE     CLOUDY    67  66  97 S6        30.00S
SALINA         CLEAR     72  67  84 S10       29.95S
TOPEKA BILLARD CLOUDY    68  67  96 SE6       29.97F
TOPEKA FORBES  MOCLDY    69  67  93 S8        29.98S
$$




USA.gov is the U.S. government's official web portal to all federal, state and local government web resources and services.